Showing default

OV1-5, 2122

Orbit data source: Space-Track

OV1-5, 2122 is a payload satellite owned by USAF OAR (US) in LEO that was launched on Wed, 30 Mar 1966 UTC via an ATLAS D launch vehicle from the Air Force Western Test Range (AFWTR). Payload-class satellites include a variety of spacecraft equipped with specific instruments for various scientific and technological missions. These include communications satellites like Starlink; space stations such as the ISS; scientific satellites like the Hubble; Earth observation satellites from companies like Planet Labs, Umbra, and HawkEye 360; GPS; miniature CubeSats for education and research; and military/defense satellites.

Loading next visibility...
Identifier
2122, 1966-025B
Orbit
LEO
Country
Flag of USUS
Related business
Manufacturer
GD/Convair
Mission
Defense Early Warn/Tech
Bus & Motor
OV1, Unknown motor
Mass
114 kg wet, 114 kg dry
Launch date (UTC)
1966-03-30 (59 years ago)
Launch vehicle
ATLAS D
Launch site
Air Force Western Test Range (AFWTR)
Object type
Payload
Rocket body
Debris
Shape & HBR
Domed Cyl, 0.7 m
Radar Cross Section
0.946 m², Medium (>0.1 m² and < 1m²)

Expand to show TLE details & history
Last TLE update: 20 hours ago

TLE from 20 hours ago
0 OV1-5
1 02122U 66025B   25242.44326773  .00000346  00000-0  10399-3 0  9995
2 02122 144.6348 329.7353 0046890  62.4751 298.0678 13.66126086965338
Epoch: 2025-08-30T10:38Z
TLE epoch observation values (Epoch: 2025-08-30T10:38:18.331Z)
Latitude
-0.00003°
Longitude
-168.71852°
Altitude
996.353 km
Speed
7.363 km/s
True Right ascension
21h 58m 56s
True Declination
0° 00' 00"
Sunlit
Object was in full shadow at epoch
Visualization orbit readout
Latitude
Unknown
Longitude
Unknown
Altitude
Unknown
Speed
Unknown
Apparent Right ascension
Unknown
Apparent Declination
Unknown
Sunlit
N/A
Visualization observer readout
Local Sidereal Time
22:20:36
Azimuth
Unknown
Elevation
Unknown
Doppler factor
Unknown
Orbital elements
Apogee altitude
1,051.155 km
Perigee altitude
981.808 km
Semi-major axis
7,394.619 km
Eccentricity
0.00469
Inclination
144.6348°
RAAN
329.7353°
Arg. of periapsis
62.4751°
True anomaly
297.59237°
Mean anomaly
298.0678°
Eccentric anomaly
297.83021°
Mean motion
3.41326 °/min
Orbital period
105.47 mins
BSTAR
0.00010399
Loading maneuver chart data...
Computing Atmospheric mass density...
Loading historical data...
Loading historical data...
Loading historical data...
Loading historical data...
Loading historical data...
Loading historical data...
Loading historical data...

Documentation

Showing up to 5 results
|